Tracking 35035 objects as of 16-Aug-2026
HD Live streaming from Space Station
objects crossing your sky now

MORELOS 2

Track MORELOS 2 now!
MORELOS 2 is classified as:


NORAD ID: 16274
Int'l Code: 1985-109B
Launch date: November 27, 1985
Source: Mexico (MEX)
Launch site: AIR FORCE EASTERN TEST RANGE (AFETR)
Your satellite tracking list
Your tracking list is empty




NASA's NSSDC Master Catalog

Two Line Element Set (TLE):
1 16274U 85109B   26228.29979231 -.00000251  00000-0  00000-0 0  9994
2 16274  14.7612 356.2375 0005061 168.9376  14.7559  0.99562131 46957
Source of the keplerian elements: AFSPC